Location: Calvera
(42.3882°N, 0.6137°E)
Time: 14:28:26
(UTC+00:00)

ADEOS Rocket - Pass Details

Date: 28 October 2020
Orbit: 859 x 1306 km, 98.7° (Epoch: 25 November)

Event Time Altitude Azimuth Distance (km) Brightness Sun altitude
Rises 04:38:52 0° 186° (S) 3,447 5.8 -20.4°
Reaches altitude 10° 04:41:23 10° 194° (SSW) 2,495 5.0 -19.9°
Maximum altitude 04:46:29 39° 263° (W) 1,261 3.1 -19.0°
Drops below altitude 10° 04:51:42 10° 332° (NNW) 2,545 4.9 -18.0°
Sets 04:54:18 0° 340° (NNW) 3,524 5.7 -17.5°
